[[{"header":{"parameterUnit":"m.s-1","parameterCategory":1,"la1":30.2991,"la2":30.254,"lo1":-89.0895,"lo2":-89.0444,"dy":0.0017,"dx":0.0017,"nx":28,"ny":28,"refTime":"2024-11-29T09:00:00:Z","depth":0,"parameterNumber":2,"parameterNumberName":"U-component_of_WINDS"},"data":[0,0,0,0,0,0,0,0,0,0,0,0,0,0,0,0,0,0,0,0,0,0,0,0,0,0,0,0,0,0,0,0,0,0,0,0,0,0,0,0,0,0,0,0,0,0,0,0,0,0,0,0,0,0,0,0,0,0,-4.8113,-4.8114,0,-4.8199,-4.82,-4.8201,-4.8034,-4.8028,-4.8022,-4.8017,-4.8108,-4.8115,-4.8123,0,0,0,0,0,0,0,0,0,0,0,0,0,-4.7803,-4.781,-4.8113,-4.8114,-4.8115,-4.8199,-4.82,-4.8201,-4.8035,-4.8028,-4.8021,-4.8015,-4.8106,-4.8114,-4.8124,0,0,0,0,0,0,0,0,0,0,0,0,0,-4.7919,-4.7812,-4.8112,-4.8042,-4.8036,-4.8199,-4.82,-4.8202,-4.8036,-4.8028,-4.8019,-4.8012,-4.8103,-4.8114,-4.8125,-4.8361,0,0,-4.8159,-4.8164,0,0,0,0,0,0,0,0,-4.7912,-4.793,-4.8051,-4.8047,-4.8041,-4.8097,-4.8124,-4.8255,-4.8038,-4.8036,-4.8017,-4.8008,-4.8111,-4.8121,-4.8156,-4.8365,-4.8369,-4.816,-4.8167,-4.8172,-4.8175,0,0,0,0,0,0,0,-4.7904,-4.7925,-4.8147,-4.8053,-4.8047,-4.8005,-4.8013,-4.8148,-4.8119,-4.8036,-4.8024,-4.8036,-4.8107,-4.8145,-4.8157,-4.837,-4.816,-4.817,-4.8177,-4.8182,-4.8776,-4.8785,0,0,0,0,0,0,-4.7905,-4.792,-4.8144,-4.8149,-4.7955,-4.8018,-4.8026,-4.8087,-4.8117,-4.8114,-4.8043,-4.8028,-4.813,-4.8144,-4.8159,-4.8437,-4.8172,-4.8183,-4.8189,-4.8767,-4.8778,-4.8788,0,0,0,0,0,0,-4.7899,-4.7927,-4.814,-4.8031,-4.8055,-4.8032,-4.8102,-4.8094,-4.8132,-4.8123,-4.8117,-4.8088,-4.8124,-4.8143,-4.8312,-4.8438,-4.8188,-4.8198,-4.8757,-4.8771,-4.8783,-4.8996,0,0,0,0,0,0,-4.7891,-4.7926,-4.8015,-4.8035,-4.8062,-4.8292,-4.811,-4.8101,-4.8152,-4.8133,-4.8163,-4.816,-4.8119,-4.8296,-4.8323,-4.8449,-4.8207,-4.8745,-4.8763,-4.8779,-4.8978,-4.9015,-4.9047,0,0,0,0,0,-4.788,-4.8073,-4.8021,-4.8049,-4.8174,-4.83,-4.8315,-4.8263,-4.8162,-4.8252,-4.8246,-4.8159,-4.8419,-4.8314,-4.8344,-4.8475,-4.8737,-4.8758,-4.8778,-4.8962,-4.9008,-4.9047,0,0,0,0,0,0,-4.807,-4.8074,-4.8016,-4.822,-4.8261,-4.8271,-4.8383,-4.8314,-4.8384,-4.8364,-4.8296,-4.8305,-4.8487,-4.8497,-4.838,-4.8705,-4.8561,-4.8588,-4.8692,-4.8735,-4.8769,-4.8764,-4.8217,0,0,0,0,0,-4.8135,-4.8237,-4.8235,-4.8415,-4.8438,-4.8408,-4.8461,-4.8417,-4.8456,-4.8473,-4.8479,-4.8521,-4.8612,-4.8674,-4.8757,-4.8977,-4.8982,-4.9082,-4.9117,-4.9146,-4.9171,-4.9287,-4.9332,-4.8854,-4.8854,-4.8854,0,0,-4.8272,-4.8286,-4.8355,-4.8454,-4.848,-4.8587,-4.8423,-4.8544,-4.8623,-4.8491,-4.8651,-4.8657,-4.8699,-4.8895,-4.8981,-4.8909,-4.9303,-4.9171,-4.9194,-4.9204,-4.9313,-4.9358,-4.9399,-4.8868,-4.8866,-4.8863,0,0,-4.8575,-4.8597,-4.8749,-4.8778,-4.8819,-4.8797,-4.8834,-4.8854,-4.8853,-4.9011,-4.8915,-4.9007,-4.9165,-4.9199,-4.9237,-4.9552,-4.9474,-4.958,-4.9763,-4.9878,-4.9916,-4.9949,-5.0061,-5.0102,-4.9605,-4.9605,-4.9606,0,-4.874,-4.8898,-4.8836,-4.8963,-4.9009,-4.8893,-4.9047,-4.9078,-4.9145,-4.918,-4.9098,-4.9293,-4.9313,-4.9515,-4.9591,-4.9626,-4.9665,-4.9578,-4.9915,-4.9948,-4.9978,-5.0084,-5.0127,-4.9618,-4.9617,-4.9615,-4.9614,0,-4.9098,-4.9209,-4.9327,-4.9393,-4.9452,-4.9592,-4.9552,-4.9619,-4.9569,-4.9556,-4.9718,-4.9738,-4.9823,-4.9867,-4.982,-5.0062,-5.0016,-4.9926,-4.9781,-5.0037,-5.0136,-5.0176,-4.9636,-4.9632,-4.9628,-4.9625,0,0,-4.9527,-4.9555,-4.96,-4.9628,-4.9664,-4.9748,-4.9882,-4.9964,-5.0023,-5.0073,-5.0184,-5.0319,-5.0235,-5.0278,-5.0234,-5.0335,-5.0582,-5.0231,-5.0231,-5.0297,-5.085,-5.0919,-5.0967,-5.053,-5.0538,-5.0544,-5.0847,0,-4.9828,-5.0059,-5.0006,-5.0234,-5.0335,-5.0225,-5.0342,-5.0376,-5.0367,-5.0451,-5.044,-5.0538,-5.0419,-5.0445,-5.0539,-5.0533,-5.0693,-5.0509,-5.0634,-5.0639,-5.0628,-5.1019,-5.1092,-5.1378,-5.0885,-5.0892,-5.0896,0,-5.0212,-5.0275,-5.0513,-5.0531,-5.0571,-5.0677,-5.0747,-5.0829,-5.0866,-5.0851,-5.0899,-5.0834,-5.0967,-5.0819,-5.1,-5.0877,-5.0924,-5.0928,-5.0937,-5.0949,-5.0785,-5.1042,-5.1467,-5.1511,-5.0957,-5.0952,-5.0947,0,-5.0502,-5.0646,-5.0806,-5.0833,-5.0859,-5.0936,-5.095,-5.0978,-5.103,-5.1091,-5.1124,-5.12,-5.1243,-5.1303,-5.126,-5.1156,-5.1449,-5.1298,-5.1442,-5.1443,-5.151,-5.1507,-5.1951,-5.1539,-5.1538,-5.1537,-5.1536,0,-5.0845,-5.0995,-5.0936,-5.1036,-5.12,-5.1137,-5.1301,-5.1302,-5.1328,-5.1425,-5.1334,-5.1428,-5.1365,-5.1453,-5.142,-5.1575,-5.1595,-5.1587,-5.1577,-5.1597,-5.1598,-5.1628,-5.1608,-5.1548,-5.1546,-5.1544,-5.1542,0,-5.1198,-5.1164,-5.1332,-5.1341,-5.1347,-5.1468,-5.1475,-5.1567,-5.1549,-5.1674,-5.1699,-5.1673,-5.1771,-5.1734,-5.1839,-5.1816,-5.2015,-5.1978,-5.2003,-5.1995,-5.2141,-5.2128,-5.2621,-5.2683,-5.223,-5.2234,-5.2238,0,-5.142,-5.1533,-5.1553,-5.1611,-5.1632,-5.1727,-5.1779,-5.1721,-5.1779,-5.1828,-5.1914,-5.2004,-5.2074,-5.2236,-5.2226,-5.2306,-5.2271,-5.2438,-5.2283,-5.2298,-5.2275,-5.2269,-5.228,-5.247,-5.2476,-5.248,-5.2483,0,-5.1818,-5.1796,-5.1874,-5.1948,-5.2012,-5.2067,-5.2114,-5.2167,-5.2111,-5.2181,-5.228,-5.2334,-5.244,-5.2531,-5.2602,-5.2615,-5.2542,-5.2532,-5.2569,-5.2591,-5.2601,-5.2599,-5.209,-5.2521,-5.2518,-5.2515,-5.2513,-5.2511,-5.2113,-5.2208,-5.2237,-5.2327,-5.2356,-5.2401,-5.2488,-5.248,-5.2562,-5.2644,-5.2604,-5.2719,-5.2751,-5.2838,-5.2862,-5.2951,-5.2886,-5.2941,-5.2955,-5.2969,-5.2989,-5.2586,-5.2964,-5.2962,-5.2961,-5.296,-5.2959,0,-5.2507,-5.252,-5.2604,-5.2671,-5.2743,-5.2664,-5.2711,-5.2776,-5.2878,-5.2914,-5.2983,-5.3097,-5.3184,-5.318,-5.3261,-5.3333,-5.33,-5.3356,-5.3351,-5.3355,-5.3042,-5.3002,-5.3381,-5.3381,-5.338,-5.338,-5.338,-5.338,-5.2721,-5.2877,-5.2858,-5.3026,-5.3037,-5.3149,-5.3183,-5.3224,-5.3252,-5.3383,-5.3454,-5.345,-5.347,-5.3551,-5.3627,-5.3623,-5.3658,-5.3727,-5.3711,-5.3419,-5.3377,-5.3338,-5.3299,-5.3734,-5.3735,-5.4016,-5.4019,-5.4021]},{"header":{"parameterUnit":"m.s-1","parameterCategory":1,"la1":30.2991,"la2":30.254,"lo1":-89.0895,"lo2":-89.0444,"dy":0.0017,"dx":0.0017,"nx":28,"ny":28,"refTime":"2024-11-29T09:00:00:Z","depth":0,"parameterNumber":3,"parameterNumberName":"V-component_of_WINDS"},"data":[0,0,0,0,0,0,0,0,0,0,0,0,0,0,0,0,0,0,0,0,0,0,0,0,0,0,0,0,0,0,0,0,0,0,0,0,0,0,0,0,0,0,0,0,0,0,0,0,0,0,0,0,0,0,0,0,0,0,-5.0873,-5.0874,0,-5.0928,-5.0929,-5.093,-5.0856,-5.0853,-5.0851,-5.0848,-5.0902,-5.0906,-5.091,0,0,0,0,0,0,0,0,0,0,0,0,0,-5.0699,-5.0702,-5.0873,-5.0874,-5.0874,-5.0928,-5.0929,-5.093,-5.0857,-5.0853,-5.085,-5.0847,-5.0901,-5.0905,-5.091,0,0,0,0,0,0,0,0,0,0,0,0,0,-5.0766,-5.0703,-5.0873,-5.0844,-5.0842,-5.0928,-5.0929,-5.093,-5.0857,-5.0853,-5.0849,-5.0846,-5.0899,-5.0905,-5.0911,-5.1026,0,0,-5.0928,-5.0931,0,0,0,0,0,0,0,0,-5.0763,-5.0773,-5.0848,-5.0847,-5.0844,-5.0881,-5.0887,-5.0962,-5.0858,-5.0852,-5.0848,-5.0844,-5.0898,-5.0904,-5.0923,-5.1029,-5.1031,-5.0929,-5.0932,-5.0935,-5.0937,0,0,0,0,0,0,0,-5.0758,-5.077,-5.0895,-5.0849,-5.0847,-5.0827,-5.0832,-5.0901,-5.0896,-5.0852,-5.0847,-5.0854,-5.0896,-5.0917,-5.0923,-5.1032,-5.0929,-5.0934,-5.0938,-5.094,-5.1231,-5.1235,0,0,0,0,0,0,-5.0757,-5.0767,-5.0893,-5.0896,-5.0793,-5.0834,-5.0839,-5.0873,-5.0895,-5.0895,-5.0858,-5.0851,-5.0909,-5.0917,-5.0925,-5.1059,-5.0935,-5.094,-5.0944,-5.1227,-5.1232,-5.1237,0,0,0,0,0,0,-5.0754,-5.0769,-5.0891,-5.083,-5.0844,-5.0841,-5.088,-5.0877,-5.0898,-5.09,-5.0898,-5.088,-5.0906,-5.0917,-5.1001,-5.106,-5.0943,-5.0948,-5.1222,-5.1229,-5.1235,-5.1331,0,0,0,0,0,0,-5.0749,-5.0768,-5.0814,-5.0832,-5.0848,-5.0968,-5.0883,-5.0881,-5.0908,-5.09,-5.0921,-5.092,-5.0904,-5.0993,-5.1007,-5.1066,-5.0953,-5.1217,-5.1225,-5.1233,-5.1322,-5.1339,-5.1354,0,0,0,0,0,-5.0743,-5.0838,-5.0816,-5.0832,-5.0904,-5.0971,-5.098,-5.0961,-5.0913,-5.0958,-5.0959,-5.092,-5.1052,-5.1002,-5.1017,-5.1079,-5.1213,-5.1223,-5.1232,-5.1315,-5.1336,-5.1354,0,0,0,0,0,0,-5.0827,-5.084,-5.0816,-5.092,-5.0945,-5.0959,-5.1014,-5.0984,-5.1022,-5.1012,-5.0985,-5.0991,-5.108,-5.1088,-5.1032,-5.119,-5.1124,-5.1137,-5.1182,-5.1202,-5.1218,-5.1213,-5.0958,0,0,0,0,0,-5.0858,-5.0912,-5.092,-5.1012,-5.1025,-5.1018,-5.1046,-5.1029,-5.1053,-5.1063,-5.107,-5.1094,-5.1141,-5.1172,-5.1215,-5.1323,-5.1325,-5.1373,-5.1389,-5.1402,-5.1414,-5.1468,-5.1489,-5.1268,-5.1268,-5.1268,0,0,-5.0921,-5.0935,-5.0972,-5.1029,-5.1046,-5.1101,-5.1027,-5.1089,-5.1129,-5.1072,-5.1152,-5.1158,-5.1182,-5.1278,-5.1321,-5.1288,-5.1475,-5.1415,-5.1425,-5.1429,-5.148,-5.1501,-5.152,-5.1275,-5.1274,-5.1272,0,0,-5.1065,-5.1083,-5.1159,-5.1178,-5.1205,-5.1199,-5.1217,-5.1235,-5.1237,-5.1317,-5.1274,-5.132,-5.1402,-5.1421,-5.1441,-5.159,-5.1554,-5.1605,-5.1688,-5.1742,-5.1759,-5.1775,-5.1825,-5.1844,-5.1616,-5.1616,-5.1616,0,-5.1141,-5.1224,-5.1202,-5.1267,-5.1292,-5.1243,-5.1319,-5.1338,-5.1377,-5.1395,-5.1358,-5.1457,-5.1471,-5.1569,-5.1605,-5.1624,-5.1642,-5.1602,-5.1759,-5.1774,-5.1788,-5.1836,-5.1855,-5.1622,-5.1621,-5.1621,-5.162,0,-5.1314,-5.1372,-5.143,-5.147,-5.1501,-5.1572,-5.1559,-5.1593,-5.1573,-5.157,-5.165,-5.1664,-5.1708,-5.1731,-5.1711,-5.1825,-5.1804,-5.1764,-5.1696,-5.1815,-5.1859,-5.1878,-5.163,-5.1628,-5.1627,-5.1625,0,0,-5.1513,-5.1538,-5.156,-5.1576,-5.1601,-5.1645,-5.1712,-5.1755,-5.1784,-5.1813,-5.1866,-5.1936,-5.1898,-5.1921,-5.1903,-5.195,-5.2064,-5.1903,-5.1903,-5.1931,-5.2188,-5.2217,-5.2238,-5.2041,-5.2045,-5.2047,-5.2185,0,-5.1655,-5.1771,-5.1752,-5.1864,-5.1916,-5.1869,-5.1927,-5.1948,-5.1947,-5.1989,-5.1987,-5.2036,-5.1983,-5.1996,-5.2041,-5.2041,-5.2115,-5.2031,-5.2089,-5.2091,-5.2082,-5.2262,-5.2294,-5.2422,-5.2202,-5.2205,-5.2207,0,-5.1836,-5.1871,-5.1988,-5.2003,-5.2024,-5.2077,-5.2114,-5.2156,-5.2177,-5.2173,-5.2198,-5.2171,-5.2235,-5.2167,-5.2254,-5.2197,-5.222,-5.2223,-5.2227,-5.223,-5.2155,-5.2268,-5.2463,-5.2482,-5.2235,-5.2233,-5.2231,0,-5.1967,-5.2043,-5.2122,-5.2138,-5.2158,-5.2195,-5.2205,-5.2223,-5.225,-5.2282,-5.2298,-5.2337,-5.2358,-5.2389,-5.2372,-5.2325,-5.2461,-5.2392,-5.2457,-5.2457,-5.2486,-5.2484,-5.2686,-5.2504,-5.2504,-5.2504,-5.2503,0,-5.2126,-5.2199,-5.2181,-5.2229,-5.2308,-5.2285,-5.2364,-5.2368,-5.2384,-5.2431,-5.2393,-5.2438,-5.2414,-5.2456,-5.2444,-5.2516,-5.2526,-5.2523,-5.2518,-5.2525,-5.2526,-5.2538,-5.2528,-5.2509,-5.2508,-5.2507,-5.2506,0,-5.2285,-5.2276,-5.2358,-5.237,-5.2375,-5.2433,-5.2442,-5.2486,-5.2482,-5.2542,-5.2554,-5.2547,-5.2595,-5.2581,-5.2633,-5.2624,-5.2715,-5.27,-5.2708,-5.2703,-5.2768,-5.2761,-5.2983,-5.301,-5.2813,-5.2815,-5.2817,0,-5.2386,-5.2441,-5.2459,-5.2488,-5.2501,-5.2548,-5.2575,-5.2554,-5.2583,-5.261,-5.2651,-5.2695,-5.2729,-5.2807,-5.2806,-5.2844,-5.2829,-5.2904,-5.2834,-5.2839,-5.2827,-5.2823,-5.2827,-5.2917,-5.2919,-5.2921,-5.2923,0,-5.2567,-5.2559,-5.26,-5.2638,-5.2671,-5.2701,-5.2726,-5.2752,-5.2732,-5.2766,-5.2815,-5.2841,-5.2893,-5.2937,-5.2972,-5.298,-5.2948,-5.2945,-5.2961,-5.2968,-5.2969,-5.2967,-5.2744,-5.2939,-5.2938,-5.2937,-5.2936,-5.2935,-5.2699,-5.2744,-5.2763,-5.2808,-5.2825,-5.285,-5.2891,-5.2892,-5.2932,-5.2973,-5.2958,-5.3013,-5.303,-5.3074,-5.3087,-5.3128,-5.3099,-5.3124,-5.313,-5.3136,-5.3143,-5.2965,-5.3135,-5.3134,-5.3134,-5.3133,-5.3133,0,-5.2875,-5.2885,-5.2927,-5.2963,-5.2999,-5.2966,-5.2992,-5.3023,-5.3072,-5.3092,-5.3126,-5.318,-5.3222,-5.3224,-5.3262,-5.3295,-5.328,-5.3305,-5.3302,-5.3304,-5.3167,-5.3148,-5.3316,-5.3316,-5.3316,-5.3316,-5.3316,-5.3316,-5.2971,-5.3045,-5.304,-5.3121,-5.3129,-5.3183,-5.3201,-5.3222,-5.3237,-5.33,-5.3334,-5.3335,-5.3347,-5.3386,-5.3422,-5.3421,-5.3436,-5.3466,-5.3459,-5.3332,-5.3313,-5.3296,-5.3278,-5.347,-5.347,-5.3591,-5.3592,-5.3593]}]]